Wind_Speed
10 10 8 8 7 7 7 7 7 8 8 8 9 10 11 12 12 13 13 14 14 15 16 17 17 18 18 17 17 17 18 17 16 15 15 14 14 13 13 12 12 11 10
9 8 7 7 6 6 7 7 8 8 8 8 9 10 11 12 13 14 14 15 16 16 17 17 18 19 20 19 19 19 19 19 19 18 18 17 16 16 15 14 13 13 12
8 7 6 6 6 6 6 7 8 8 8 9 10 10 11 12 13 14 15 16 17 18 18 19 19 20 20 21 21 21 21 21 20 21 21 20 19 19 18 17 16 15 14
6 5 5 5 5 5 6 6 7 8 8 9 10 11 11 12 13 14 16 17 18 19 19 20 20 21 22 23 22 23 23 23 23 23 23 23 22 22 21 20 19 17 16
5 4 4 4 4 5 5 6 7 8 9 10 11 12 12 12 12 14 15 17 18 19 20 21 21 22 23 23 24 24 25 24 24 26 25 25 25 25 24 23 22 20 19
3 3 3 3 4 4 5 6 7 7 9 9 10 11 12 13 13 14 15 17 18 19 20 21 21 23 24 25 26 27 27 26 26 26 27 27 27 27 27 26 25 24 22
3 2 2 3 3 4 5 6 7 8 9 10 11 12 12 13 14 15 16 17 18 19 21 22 23 23 24 25 26 27 28 28 28 27 28 30 29 30 29 28 28 27 26
2 2 2 2 2 4 5 6 7 8 9 10 11 12 13 14 15 16 17 18 19 20 21 22 23 24 25 25 26 28 28 28 29 29 29 29 30 31 31 30 29 29 28
2 1 1 2 3 4 5 7 8 9 10 11 11 12 13 14 15 16 17 18 19 21 22 22 23 25 25 26 27 28 29 29 29 30 31 31 31 31 33 33 32 31 31
1 0 1 2 3 5 6 8 9 10 10 11 11 12 13 14 15 15 17 18 19 21 22 24 24 25 26 27 28 29 30 31 31 31 32 33 33 33 33 34 34 33 33
1 0 1 2 3 5 7 8 9 10 11 12 12 13 14 15 16 16 17 18 19 20 22 23 25 26 27 28 29 29 31 32 32 33 34 34 35 35 34 34 36 36 36
1 1 2 3 4 6 8 9 10 11 12 12 13 14 15 16 17 17 18 19 20 21 22 23 24 26 27 29 30 31 32 33 34 34 35 36 36 36 36 37 37 37 38
2 2 3 5 6 8 9 10 11 12 13 14 15 15 16 17 18 19 20 21 22 23 23 24 25 26 28 29 30 32 33 35 36 36 36 37 37 38 38 38 38 38 38
4 5 6 7 8 9 10 11 12 13 14 16 16 17 18 19 20 21 22 22 23 24 24 25 26 27 28 30 31 32 34 35 36 37 37 38 38 39 39 39 39 39 39
7 8 9 10 11 11 12 13 14 15 17 18 18 19 20 21 22 23 23 23 24 25 26 26 27 28 28 30 30 32 33 34 36 37 38 39 39 40 41 41 41 41 42
10 10 11 12 13 13 14 15 16 17 19 20 21 22 22 23 24 24 24 25 25 26 26 27 28 28 29 29 30 31 33 34 36 37 39 40 41 42 42 43 43 43 43
13 13 13 14 15 16 17 18 19 20 21 22 23 23 24 25 25 25 26 26 26 27 27 28 29 30 30 30 30 31 32 34 35 37 38 40 42 43 43 44 45 45 45
15 16 16 17 18 19 19 20 21 22 23 24 25 25 26 27 27 27 28 28 28 28 28 29 30 30 31 31 31 32 32 34 35 37 38 40 41 43 44 45 46 47 47
19 19 20 20 21 21 22 23 24 25 25 26 26 27 28 28 29 30 30 30 30 30 30 30 30 31 32 32 32 32 33 34 35 37 38 40 42 43 44 46 46 47 48
22 22 23 23 24 24 25 25 26 26 27 27 28 29 29 30 31 31 31 32 32 31 31 31 31 32 32 33 33 33 34 34 35 36 37 39 41 43 44 45 46 47 48
24 25 25 26 26 27 27 27 28 28 29 29 30 30 31 32 32 33 33 33 33 33 33 33 33 33 33 34 34 34 34 35 35 36 37 38 40 42 43 45 46 48 49
27 27 28 28 28 28 29 29 29 30 31 31 31 32 33 33 34 34 35 35 35 35 35 35 34 34 34 35 35 35 35 35 36 37 37 37 39 40 42 44 45 47 48
29 29 30 30 30 30 30 31 31 32 32 33 33 34 34 35 35 36 36 36 36 36 36 36 36 35 35 36 35 35 35 36 36 37 38 38 39 39 40 42 44 46 48
30 30 30 31 31 32 32 32 33 33 34 34 35 36 36 37 37 37 37 38 38 38 38 37 36 36 36 36 36 35 35 35 36 37 37 38 39 40 40 41 42 44 46
31 31 32 32 32 33 33 34 34 35 35 36 37 38 38 38 39 39 39 39 39 39 39 38 38 38 38 37 37 36 36 36 36 37 38 38 38 39 40 41 42 43 45
32 33 33 33 34 35 35 36 37 37 37 38 38 39 40 40 41 41 41 40 40 40 40 40 39 39 39 39 38 37 37 37 37 37 38 38 38 38 38 40 41 43 45
Wind_Direction
272 275 282 287 283 280 280 281 282 273 267 261 258 257 255 256 259 259 255 251 251 250 250 251 247 241 239 239 236 236 233 232 234 236 236 234 233 230 227 224 223 221 218
273 273 277 288 286 282 275 277 284 276 274 270 267 267 262 260 260 259 256 256 257 257 256 256 253 247 243 241 240 239 237 236 235 236 236 235 234 233 231 229 227 226 225
269 276 282 289 291 289 287 284 285 281 281 280 276 273 271 267 263 261 260 260 259 259 260 258 256 252 249 248 244 241 240 240 238 236 236 235 234 234 233 231 231 230 229
268 274 281 289 289 296 297 295 294 290 287 286 282 277 276 273 269 265 263 262 262 262 261 259 258 257 253 250 248 246 244 243 242 239 237 236 235 234 234 233 233 233 232
257 268 282 287 288 296 302 306 308 304 297 294 292 289 284 280 278 272 268 266 265 265 263 260 260 260 256 252 250 251 249 248 246 242 239 236 235 234 234 234 234 235 234
251 264 281 290 291 300 307 312 313 311 306 301 298 296 292 286 283 280 277 273 269 267 265 263 261 261 259 256 253 253 254 251 249 246 242 238 236 235 234 234 235 235 236
240 262 287 297 301 304 312 315 314 313 310 306 303 300 295 292 288 284 280 278 273 270 268 266 264 262 261 259 257 256 255 253 251 249 246 242 239 237 235 235 235 235 236
229 249 267 293 308 312 321 324 321 319 316 313 308 303 299 294 291 286 283 280 277 273 270 268 266 265 264 260 257 256 254 254 254 253 251 247 244 241 237 236 237 236 236
198 231 273 301 322 330 331 330 327 323 322 320 315 310 306 302 297 292 287 283 280 277 273 270 266 265 265 263 260 257 254 254 255 254 253 250 247 245 243 239 238 238 237
184 216 321 330 338 337 335 334 333 330 328 325 321 317 313 309 304 299 294 289 284 280 277 274 271 267 265 264 262 259 256 255 255 254 253 252 250 248 246 243 240 238 238
180 37 356 342 338 339 339 337 335 331 329 326 323 319 316 313 309 304 299 295 290 285 282 278 275 271 268 266 264 261 258 256 254 254 254 253 252 250 247 245 243 240 239
220 295 323 328 329 331 330 331 330 329 327 325 323 321 319 315 312 308 303 298 293 289 284 281 278 274 271 268 265 263 260 258 256 255 254 252 252 250 249 247 246 243 241
240 280 300 310 317 322 322 322 323 323 323 323 322 321 320 318 315 311 307 302 297 292 287 284 280 277 273 270 267 264 261 259 257 256 255 253 251 250 249 249 247 245 243
259 279 292 301 307 313 316 317 319 321 321 320 319 318 317 317 315 312 309 304 300 296 292 288 284 280 277 272 269 266 264 262 259 257 255 253 252 250 249 249 248 246 245
268 280 290 297 303 307 310 312 315 316 317 318 316 316 316 315 315 312 310 307 303 299 295 292 288 284 281 276 272 268 265 263 261 258 256 253 252 251 250 249 248 247 247
272 279 286 293 298 302 306 308 310 312 314 315 314 314 314 314 314 312 310 308 305 301 297 294 292 288 284 279 275 271 267 264 261 259 257 255 253 251 250 249 248 247 247
272 278 284 290 295 298 301 304 305 307 309 311 313 313 312 312 313 312 310 308 306 303 299 296 294 290 286 282 277 274 270 266 263 260 258 256 254 252 251 250 248 247 246
273 278 283 287 291 294 297 299 301 304 306 308 309 310 311 310 311 311 310 308 307 304 302 299 296 293 289 285 281 277 272 268 265 262 260 257 255 254 252 251 249 247 246
274 278 282 285 289 292 295 297 299 303 304 306 307 308 309 309 310 310 310 309 307 305 303 301 298 295 291 287 284 280 275 271 268 265 262 259 257 255 253 251 249 248 246
275 279 282 285 288 291 294 296 298 301 303 304 305 307 308 308 309 309 309 309 308 306 304 302 299 296 293 289 285 282 278 275 271 267 264 261 259 257 254 253 250 248 246
277 279 282 285 288 290 293 295 297 299 301 303 304 305 306 306 307 308 308 308 308 307 305 304 301 298 294 290 287 283 280 277 274 270 267 264 262 259 257 254 251 248 246
278 281 283 285 287 289 292 294 295 298 300 301 302 303 304 305 306 307 307 307 307 307 306 304 302 299 296 292 289 285 282 279 276 272 269 266 264 261 258 255 252 249 247
279 282 283 285 287 289 291 293 295 297 298 300 302 303 304 304 305 306 307 306 306 306 305 303 302 299 297 294 291 287 284 281 277 273 270 268 266 262 259 257 254 251 249
280 283 285 287 289 290 292 293 295 297 297 298 300 302 302 303 304 305 305 305 305 305 304 303 300 298 296 294 292 289 286 282 278 275 272 270 266 264 261 258 255 253 250
281 283 285 287 289 290 291 293 295 296 297 297 299 300 301 301 302 303 304 304 303 303 303 302 300 297 295 293 291 289 286 283 280 277 274 271 268 265 263 260 258 254 251
281 284 285 287 289 290 291 293 294 296 296 296 297 298 299 299 300 302 303 302 302 302 301 301 299 297 295 293 291 289 287 284 280 277 274 271 269 267 265 263 259 256 253
Height
5892 5892 5892 5892 5892 5892 5892 5892 5892 5892 5893 5893 5894 5894 5894 5895 5895 5895 5896 5897 5897 5898 5899 5899 5899 5900 5901 5903 5904 5905 5906 5908 5909 5910 5911 5913 5914 5915 5915 5916 5917 5918 5919
5890 5890 5890 5890 5890 5890 5890 5890 5890 5890 5891 5891 5891 5891 5891 5892 5892 5892 5893 5893 5894 5895 5895 5896 5896 5897 5897 5899 5900 5901 5903 5904 5906 5907 5909 5910 5911 5913 5914 5915 5915 5916 5917
5888 5888 5888 5888 5888 5888 5888 5888 5888 5888 5888 5889 5889 5888 5889 5889 5889 5889 5889 5890 5891 5891 5892 5892 5893 5893 5894 5895 5896 5897 5899 5900 5902 5903 5905 5907 5908 5910 5911 5912 5914 5915 5916
5886 5887 5887 5887 5887 5886 5886 5886 5886 5886 5886 5886 5886 5886 5886 5886 5886 5886 5886 5886 5887 5887 5887 5888 5889 5889 5890 5890 5891 5893 5894 5896 5897 5899 5901 5902 5904 5906 5908 5910 5911 5912 5913
5885 5885 5885 5885 5885 5885 5885 5885 5884 5884 5884 5884 5884 5883 5883 5883 5883 5883 5883 5883 5883 5883 5883 5884 5884 5885 5885 5886 5887 5888 5889 5891 5892 5894 5896 5897 5899 5902 5904 5906 5907 5909 5911
5883 5884 5884 5884 5884 5884 5884 5883 5883 5882 5882 5882 5881 5881 5880 5880 5880 5879 5879 5879 5879 5879 5879 5879 5880 5880 5880 5881 5882 5883 5884 5885 5887 5888 5890 5892 5894 5896 5898 5901 5903 5905 5907
5882 5883 5883 5883 5883 5883 5882 5882 5881 5881 5880 5879 5879 5878 5877 5876 5876 5876 5875 5875 5875 5874 5874 5874 5874 5875 5875 5876 5877 5877 5878 5880 5881 5883 5884 5886 5888 5890 5892 5895 5898 5900 5902
5882 5882 5882 5882 5881 5881 5881 5880 5879 5879 5878 5877 5876 5875 5874 5874 5873 5872 5871 5871 5870 5870 5869 5869 5869 5869 5870 5870 5871 5872 5873 5874 5875 5876 5878 5880 5882 5884 5886 5889 5892 5894 5897
5880 5881 5880 5880 5880 5880 5879 5878 5877 5877 5876 5875 5873 5872 5871 5870 5869 5868 5867 5866 5865 5865 5864 5864 5864 5864 5864 5864 5865 5865 5867 5868 5869 5870 5872 5873 5875 5877 5880 5882 5885 5888 5891
5880 5879 5879 5879 5878 5878 5877 5877 5876 5874 5873 5872 5871 5869 5868 5866 5865 5864 5863 5862 5860 5860 5859 5858 5858 5858 5858 5858 5858 5859 5860 5861 5862 5864 5865 5867 5868 5870 5873 5876 5878 5881 5884
5879 5878 5878 5878 5877 5877 5876 5875 5874 5872 5871 5870 5868 5866 5865 5863 5861 5860 5858 5857 5856 5854 5853 5852 5852 5851 5851 5851 5851 5852 5852 5854 5855 5856 5858 5859 5861 5863 5865 5868 5871 5874 5877
5878 5878 5877 5877 5876 5875 5874 5873 5872 5870 5869 5867 5865 5863 5861 5859 5857 5855 5854 5852 5850 5849 5848 5846 5845 5845 5844 5844 5844 5845 5845 5846 5847 5848 5850 5851 5853 5855 5858 5860 5863 5866 5869
5877 5877 5876 5876 5875 5874 5872 5871 5870 5868 5866 5864 5862 5860 5858 5856 5853 5851 5849 5847 5844 5843 5841 5840 5839 5838 5837 5837 5836 5837 5837 5837 5838 5840 5841 5843 5845 5847 5849 5852 5855 5858 5861
5875 5875 5875 5874 5873 5871 5870 5869 5867 5865 5863 5861 5859 5857 5854 5852 5849 5846 5844 5841 5839 5836 5834 5833 5831 5830 5829 5829 5828 5828 5828 5829 5829 5831 5832 5834 5836 5838 5840 5843 5846 5849 5852
5873 5873 5872 5871 5870 5869 5867 5866 5864 5862 5860 5857 5855 5853 5850 5847 5844 5841 5838 5836 5833 5830 5828 5826 5824 5822 5821 5820 5820 5819 5819 5820 5820 5821 5822 5824 5826 5828 5831 5833 5836 5839 5842
5871 5870 5869 5868 5867 5865 5864 5862 5860 5858 5856 5853 5850 5848 5845 5842 5839 5836 5833 5830 5827 5824 5821 5818 5816 5814 5813 5811 5811 5810 5810 5810 5810 5811 5812 5814 5816 5818 5821 5823 5826 5829 5832
5868 5867 5866 5864 5863 5861 5860 5858 5856 5853 5851 5848 5845 5843 5840 5837 5833 5830 5827 5824 5820 5817 5814 5811 5808 5806 5804 5803 5802 5801 5800 5800 5800 5801 5802 5803 5805 5807 5810 5812 5816 5819 5822
5864 5863 5861 5860 5859 5857 5855 5853 5851 5848 5846 5843 5840 5837 5834 5831 5827 5824 5820 5817 5814 5810 5807 5804 5801 5798 5796 5794 5793 5792 5791 5790 5790 5791 5791 5792 5794 5796 5798 5801 5804 5807 5811
5859 5858 5857 5855 5854 5852 5850 5847 5845 5842 5840 5837 5834 5830 5827 5824 5821 5817 5813 5810 5806 5803 5800 5796 5793 5790 5787 5785 5783 5782 5781 5780 5780 5780 5780 5781 5782 5784 5786 5788 5791 5795 5799
5854 5853 5851 5849 5848 5846 5843 5841 5838 5836 5833 5830 5827 5824 5820 5817 5813 5810 5806 5802 5799 5795 5792 5788 5785 5782 5778 5776 5774 5772 5771 5770 5769 5769 5769 5770 5771 5772 5774 5776 5779 5782 5786
5848 5846 5845 5843 5841 5839 5837 5834 5831 5829 5826 5823 5819 5816 5813 5809 5806 5802 5798 5794 5790 5787 5783 5780 5776 5773 5769 5766 5764 5762 5761 5759 5758 5758 5758 5758 5759 5760 5761 5763 5766 5769 5773
5841 5840 5838 5836 5834 5832 5829 5827 5824 5821 5818 5815 5812 5808 5805 5801 5798 5794 5790 5786 5782 5778 5774 5771 5767 5763 5760 5757 5754 5752 5750 5749 5748 5747 5747 5747 5747 5748 5749 5751 5753 5756 5759
5834 5833 5831 5829 5826 5824 5822 5819 5816 5813 5810 5807 5803 5800 5796 5793 5789 5785 5781 5777 5773 5769 5765 5761 5757 5753 5750 5747 5744 5742 5740 5738 5737 5735 5735 5735 5735 5736 5736 5738 5740 5743 5746
5826 5825 5823 5821 5818 5816 5813 5810 5807 5804 5801 5798 5794 5791 5787 5783 5779 5776 5771 5767 5763 5759 5756 5751 5748 5744 5740 5737 5734 5731 5729 5727 5726 5724 5723 5723 5723 5723 5724 5726 5728 5730 5733
5818 5816 5814 5812 5810 5807 5804 5801 5798 5795 5791 5788 5785 5781 5777 5774 5770 5766 5762 5757 5753 5749 5745 5741 5737 5733 5730 5726 5723 5721 5718 5716 5715 5713 5712 5712 5711 5711 5712 5713 5715 5717 5720
5809 5807 5805 5803 5800 5798 5795 5791 5788 5785 5782 5778 5775 5771 5767 5764 5759 5755 5751 5747 5743 5738 5734 5730 5726 5723 5719 5716 5712 5709 5707 5705 5703 5702 5700 5699 5699 5699 5700 5701 5702 5704 5706